{"data":{"norad_id":58285,"intl_designator":"2023-174AF","name":"FLOCK 4Q-31","alt_names":[],"object_type":"PAYLOAD","status":"ACTIVE","operator":null,"country":"US","launch_date":"2023-11-11","launch_site_code":"AFWTR","launch_vehicle":null,"mission":null,"orbit_class":"UNKNOWN","rcs_meters":null,"size_class":null,"mass_kg":null,"dimensions":null,"purposes":["earth_obs"],"wikipedia_slug":null,"has_3d_model":false,"image_url":null,"decayed_at":null,"tle_current":{"epoch":"2026-05-24T17:12:41.335776Z","epoch_age_seconds":106295,"freshness":"FRESH","line1":"1 58285U 23174AF  26144.71714509  .00030528  00000+0  44485-3 0  9991","line2":"2 58285  97.3910 236.0329 0006192 215.5159 144.5684 15.55646023142130","mean_motion":15.55646023,"eccentricity":0.0006192,"inclination_deg":97.391,"raan_deg":236.0329,"arg_perigee_deg":215.5159,"mean_anomaly_deg":144.5684,"bstar":0.00044485,"rev_number":14213,"period_min":92.566045148434,"perigee_km":396.07817720585,"apogee_km":404.47256308504,"semimajor_km":6778.4123701454,"source":"CELESTRAK","updated_at":"2026-05-25T13:38:13.299163Z"}}}